User: anonymous   Login
Location: Newark
(39.1833°N, 3.3000°W)
Time: 04:05:44
(UTC+00:00)
Language:

Tiangong 2 - Orbit

View from above orbital plane
View from above orbital plane
View from above satellite
View from above satellite

Ground track
Ground track

The orbit data is extracted from the following two-line orbital elements,

1 41765U 16057A   19144.84333750  .00002340  00000-0  30898-4 0  9995
2 41765  42.7833 106.0907 0006326 101.5024 346.3098 15.61580188153392
Epoch (UTC): 24 May 2019 20:14:24
Eccentricity: 0.0006326
inclination: 42.7833°
perigee height: 379 km
apogee height: 387 km
right ascension of ascending node: 106.0907°
argument of perigee: 101.5024°
revolutions per day: 15.61580188
mean anomaly at epoch: 346.3098°
orbit number at epoch: 15339

The dashed part of the orbit path shows where the satellite is in the earth's shadow,  

DLR